www.pogodaiklimat.ru

ПОГОДА на Базе ВВС Ванденберг, CA

  • Прогноз погоды на Базе ВВС Ванденберг
  • Монитор погоды на Базе ВВС Ванденберг
  • Климат на Базе ВВС Ванденберг

АРХИВ ПОГОДЫ на Базе ВВС Ванденберг

Время (UTC), дата Ветер
(напр.,м/с)
 
Видим.   Явления Облачность Т
(С)
Тd
(С)
f
(%)
Тe
(С)
Тes
(С)
Комфортность

P
(гПа)

Po
(гПа)
Тmin
(С)
Tmax
(С)
R
(мм)
SD
(см)
18:47 26.05 З  11 км    10/10 270 м  +13.0  +12.0  94  +10  +10    1014.5  1000.7         
18:48 26.05 З  11 км  слабый дождь  10/10 270 м  +13.0  +12.0  94  +10  +10    1014.5  1000.7         
18:57 26.05 З  9
{10} 
6 км  слабый дождь, дымка  10/10 240 м  +13.0  +12.0  94  +10  +10    1014.5  1000.7         
18:58 26.05 З  8
{10} 
6 км  слабый дождь, дымка  10/10 240 м  +13.0  +12.0  94  +10  +10    1014.5  1000.7         
19:08 26.05 З  7
{8} 
4 км  слабый дождь, дымка  10/10 180 м  +12.0  +11.0  94  +9  +9    1014.9  1001.0         
19:09 26.05 З  7
{8} 
5 км  дымка  10/10 180 м  +12.0  +11.0  94  +9  +9    1014.9  1001.0         
19:39 26.05 З  11 км    10/10 330 м  +13.0  +12.0  94  +10  +10    1014.8  1001.0         
19:44 26.05 З  11 км    10/10 270 м  +13.0  +11.0  88  +10  +10    1014.5  1000.7         
19:47 26.05 СЗ  8 км  слабый дождь, дымка  10/10 240 м  +12.0  +11.0  94  +9  +9    1014.9  1001.0         
19:52 26.05 З  7
{9} 
4 км  слабый дождь, дымка  10/10 120 м  +12.0  +11.0  94  +9  +9    1014.9  1001.0         
19:58 26.05 СЗ  7
{9} 
3 км  слабый дождь, дымка  10/10 120 м  +12.0  +11.0  94  +9  +9    1014.9  1001.0      1.0   
20:03 26.05 СЗ  4 км  слабый дождь, дымка  10/10 120 м  +11.0  +11.0  100  +7  +7    1014.9  1001.0         
20:05 26.05 СЗ  5 км  дымка  10/10 120 м  +11.0  +11.0  100  +7  +7    1014.9  1001.0         
20:10 26.05 СЗ  5 км  дымка  10/10 120 м  +12.0  +11.0  94  +9  +9    1014.9  1001.0         
20:30 26.05 СЗ  5
{8} 
13 км    10/10 120 м  +12.0  +12.0  100  +9  +9    1014.9  1001.0         
20:35 26.05 СЗ  6
{9} 
13 км    8/8 180 м  +13.0  +12.0  94  +10  +11    1014.9  1001.0         
20:45 26.05 СЗ  5
{9} 
14 км    8/8 210 м  +13.0  +12.0  94  +10  +12    1014.9  1001.0         
20:55 26.05 СЗ  16 км    10/10 240 м  +12.0  +11.0  94  +9  +9    1015.2  1001.4         
20:58 26.05 СЗ  16 км    10/10 240 м  +12.0  +11.0  94  +9  +9    1015.2  1001.4         
21:28 26.05 СЗ  16 км    10/10 660 м  +13.0  +10.0  82  +11  +11    1015.2  1001.4         
21:58 26.05 СЗ  16 км    10/10 480 м  +13.0  +10.2  83  +11  +11    1014.9  1001.0         
22:23 26.05 СЗ  16 км    10/10 510 м  +14.0  +10.0  77  +12  +12    1014.8  1001.0         
22:28 26.05 СЗ  16 км    10/10 510 м  +14.0  +10.0  77  +12  +12    1014.8  1001.0         
22:58 26.05 З  16 км    8/5 480 м
[средняя] 
+13.8  +9.8  77  +12  +14    1014.8  1001.0  +11.4  +15.2  1.3   
23:58 26.05 З  16 км    5/5 480 м  +13.9  +10.0  77  +12  +14    1014.8  1001.0         
00:13 27.05 СЗ  14 км    8/8 570 м  +13.0  +9.0  77  +11  +11    1014.9  1001.0         
00:33 27.05 С  16 км    5/5 600 м  +14.0  +9.0  72  +12  +12    1015.2  1001.4         
00:58 27.05 СЗ  14 км    5/5 1380 м  +13.3  +8.5  73  +11  +13    1015.2  1001.4         
01:53 27.05 СЗ  16 км    8/8 780 м  +12.0  +9.0  82  +10  +11    1015.6  1001.7         
01:58 27.05 СЗ  16 км    8/8 720 м  +11.8  +9.0  83  +10  +10    1015.6  1001.7         
02:18 27.05 С  16 км    8/8 720 м  +11.0  +9.0  87  +9  +9    1015.9  1002.0         
02:23 27.05 С  16 км    8/8 720 м  +11.0  +9.0  87  +9  +9    1015.9  1002.0         
02:33 27.05 С  16 км    5/5 840 м  +11.0  +9.0  87  +9  +9    1015.9  1002.0         
02:38 27.05 С  16 км    8/8 840 м  +11.0  +9.0  87  +9  +9    1016.2  1002.4         
02:58 27.05 С  16 км    8/8 780 м  +11.0  +9.2  89  +9  +9    1016.2  1002.4         
03:08 27.05 С  16 км    5/5 780 м  +11.0  +9.0  87  +9  +9    1016.2  1002.4         
03:58 27.05 С  16 км    2/0 3000 м
[средняя] 
+9.9  +8.5  91  +8  +8    1016.6  1002.7         
04:58 27.05 С  16 км    2/0 3300 м
[средняя] 
+8.9  +7.6  92  +7  +7    1016.9  1003.0  +8.9  +14.2     
05:58 27.05   16 км    ясно  +8.4  +7.5  94  +7  +7    1016.9  1003.0         
06:58 27.05   16 км    2/2 660 м  +7.4  +6.7  95  +6  +6    1017.3  1003.4         
07:23 27.05 С  16 км    8/8 570 м  +8.0  +7.0  93  +6  +6    1017.3  1003.4         
07:58 27.05 С  16 км    5/5 480 м  +8.6  +7.7  94  +6  +6    1017.0  1003.0         
08:58 27.05 СВ  16 км    5/5 480 м  +8.8  +7.8  93  +6  +6    1016.9  1003.0         
09:33 27.05 СВ  16 км    8/8 540 м  +9.0  +8.0  93  +6  +6    1016.6  1002.7         
09:40 27.05 СВ  11 км    8/8 540 м
[средняя верхняя] 
+9.0  +8.0  93  +6  +6    1016.7  1002.7         
09:55 27.05 СВ  11 км    10/8 510 м
[средняя верхняя] 
+9.5  +8.0  90  +7  +7    1016.7  1002.7         
10:55 27.05 СВ  11 км    8/8 510 м
[средняя] 
+9.6  +7.8  89  +7  +7    1016.7  1002.7  +6.9  +9.9     
11:06 27.05 СВ  11 км    5/5 480 м
[средняя] 
+9.0  +8.0  93  +6  +6      1003.0         

 

Местоположение метеостанции Vandenberg Air Force Base: широта 34.7294 долгота -120.5767 высота над уровнем моря 112 м.

В архиве по умолчанию представлена погода на Базе ВВС Ванденберг за последние 1-2 суток. Обновление информации о фактической погоде в базе происходит ежечасно! Архивные данные за месяц целиком и за предыдущие месяцы Вы можете получить, выбрав интересующий диапазон дат из раскрывающегося списка и нажав кнопку "Ввод!".

Внимание! Архив погоды МЕТАР в базе сайта хранится не более 60 дней. Нет смысла пытаться выбрать более раннюю дату.

Внимание! Время в таблицах - всемирное. Для получения местного времени необходимо прибавить поправку, которая на Базе ВВС Ванденберг равна -8 ч.

Ветер - указаны скорость ветра в м/с и направление, откуда дует ветер: С - северный, СВ - северо-восточный, В - восточный, ЮВ - юго-восточный, Ю - южный, ЮЗ - юго-западный, З - западный, СЗ - северо-западный.
Видимость - горизонтальная дальность видимости в метрах или километрах. При видимости от 1 до 10 км при отсутствии осадков обычно наблюдается дымка, при ухудшении видимости до 1 км и менее - туман. В сухую погоду видимость может ухудшаться дымом, пылью или мглою.
Атмосферные явления - указаны явления, наблюдавшиеся в указанный момент времени.
Облачность - указаны через наклонную черту верхняя и нижняя облачность в баллах и высота нижней границы облаков в метрах. Внимание: облачность, как и прочие метеорологические величины в США измеряются автоматическими метеостанциями. Указанные значения в баллах носят условный характер и показывают процент времени, в течение которого, в среднем, лазерный луч высотомера отражался от облаков обратно.
T - Температура воздуха - температура, измеренная на высоте 2 м над землей.
Td - Температура точки росы - температура, при понижении до которой содержащийся в воздухе водяной пар достигнет насыщения.
f - Относительная влажность воздуха - влажноcть воздуха, измеренная на высоте 2 м над землей.
Te - Эффективная температура - температура, которую ощущает одетый по сезону человек в тени. Характеристика душности погоды. При расчете учитывается влияние влажности воздуха и скорости ветра на теплоощущения человека.
Tes - Эффективная температура на солнце - температура, которую ощущает человек, с поправкой на солнечный нагрев. Характеристика знойности погоды. Зависит от высоты солнца над горизонтом, облачности и скорости ветра. Ночью, в пасмурную погоду, а также при ветре 12 м/с и более поправка равна нулю.
P - Атмосферное давление - приведенное к уровню моря атмосферное давление.
Po - Атмосферное давление - измеренное на уровне метеостанции атмосферное давление.
Tmin - Минимальная температура - минимум температуры воздуха на высоте 2 м над землей.
Tmax - Максимальная температура - максимум температуры воздуха на высоте 2 м над землей.
R - Количество осадков - Количество выпавших осадков за 3 или 6 часов, мм.
SD - Снежный покров - Высота снежного покрова, см.